Date String (YYYY-MM-DD hh:mm:ss) UTC,Instrument flags,Ambient pressure (hPa),Sample flow (lpm),Bypass flow (lpm),Sample temperature (°C),Ambient temperature (°C),ASC tube jacket temperature (°C),LED temperature (°C),Box temperature (°C),Sample RH (%),Span deviation,Mass concentration (μg/m³),Mass concentration (μg/m³),Mass concentration (μg/m³)
DateTimeUTC,F1_M11,P_M11,Q1_M11,Q2_M11,T1_M11,T2_M11,T3_M11,T4_M11,T5_M11,U1_M11,ZSPAN_M11,X0_M11,X2_M11,X1_M11
2022-12-23 13:00:00,,0831.1,4.99,0.00,21.8,20.7,00.0,30.6,23.3,02.3,0002.1,0009.54,0005.46,0004.99
2022-12-23 13:01:00,,0831.0,4.97,0.00,21.7,20.2,00.0,30.6,23.1,02.4,0002.1,0009.98,0005.54,0005.05
2022-12-23 13:02:00,,0831.0,5.04,0.00,21.7,20.8,00.0,30.5,23.3,02.4,0001.3,0010.09,0005.60,0005.10
2022-12-23 13:03:00,,0831.0,5.02,0.00,21.8,21.6,00.0,30.5,23.5,02.3,0001.3,0010.01,0005.66,0005.16
2022-12-23 13:04:00,,0831.2,4.97,0.00,21.9,22.2,00.0,30.5,23.7,02.3,0001.2,0010.05,0005.69,0005.21
2022-12-23 13:05:00,,0831.2,5.02,0.00,21.9,22.0,00.0,30.5,23.7,02.3,0002.0,0010.04,0005.71,0005.23
2022-12-23 13:06:00,,0831.2,4.95,0.00,21.9,21.1,00.0,30.6,23.4,02.3,0002.0,0010.16,0005.78,0005.28
2022-12-23 13:07:00,,0831.2,5.01,0.00,21.8,20.3,00.0,30.6,23.1,02.4,0002.1,0010.85,0005.80,0005.30
2022-12-23 13:08:00,,0831.2,5.01,0.00,21.7,20.3,00.0,30.6,23.1,02.4,0001.4,0011.12,0005.83,0005.32
2022-12-23 13:09:00,,0831.2,4.97,0.00,21.8,21.2,00.0,30.5,23.4,02.4,0001.1,0011.13,0005.84,0005.33
2022-12-23 13:10:00,,0831.2,5.01,0.00,21.8,22.0,00.0,30.5,23.6,02.3,0001.4,0011.06,0005.81,0005.33
2022-12-23 13:11:00,,0831.1,4.99,0.00,21.9,22.3,00.0,30.5,23.7,02.3,0001.8,0010.62,0005.79,0005.31
2022-12-23 13:12:00,,0831.2,5.00,0.00,21.9,21.6,00.0,30.6,23.6,02.3,0002.3,0010.27,0005.77,0005.29
2022-12-23 13:13:00,,0831.2,5.03,0.00,21.8,20.9,00.0,30.6,23.4,02.3,0003.5,0010.21,0005.76,0005.28
2022-12-23 13:14:00,,0831.2,4.99,0.00,21.8,20.3,00.0,30.6,23.2,02.4,0003.3,0010.19,0005.73,0005.25
2022-12-23 13:15:00,,0831.2,4.98,0.00,21.7,20.6,00.0,30.6,23.3,02.4,0003.4,0010.10,0005.69,0005.22
2022-12-23 13:16:00,,0831.4,5.04,0.00,21.8,21.5,00.0,30.5,23.5,02.3,0002.8,0010.25,0005.71,0005.22
2022-12-23 13:17:00,,0831.3,4.98,0.00,21.9,22.1,00.0,30.5,23.7,02.3,0003.1,0010.24,0005.69,0005.20
2022-12-23 13:18:00,,0831.3,5.01,0.00,21.9,21.7,00.0,30.6,23.7,02.3,0003.2,0009.63,0005.70,0005.21
2022-12-23 13:19:00,,0831.3,5.04,0.00,21.9,21.0,00.0,30.6,23.5,02.3,0004.4,0009.38,0005.71,0005.24
2022-12-23 13:20:00,,0831.1,4.97,0.00,21.8,20.4,00.0,30.6,23.3,02.3,0004.5,0009.41,0005.74,0005.27
2022-12-23 13:21:00,,0831.2,4.99,0.00,21.7,20.1,00.0,30.6,23.2,02.4,0004.0,0009.58,0005.80,0005.32
2022-12-23 13:22:00,,0831.2,5.04,0.00,21.8,21.0,00.0,30.6,23.4,02.4,0003.1,0010.04,0005.85,0005.38
2022-12-23 13:23:00,,0831.4,4.96,0.00,21.9,21.8,00.0,30.5,23.6,02.3,0002.7,0010.18,0005.92,0005.41
2022-12-23 13:24:00,,0831.3,5.03,0.00,22.0,22.4,00.0,30.6,23.8,02.3,0002.1,0010.35,0006.02,0005.47
2022-12-23 13:25:00,,0831.2,4.96,0.00,22.0,21.9,00.0,30.6,23.7,02.3,0002.0,0010.82,0006.10,0005.53
2022-12-23 13:26:00,,0831.2,5.04,0.00,21.9,21.2,00.0,30.7,23.5,02.3,0002.4,0010.97,0006.14,0005.58
2022-12-23 13:27:00,,0831.2,5.02,0.00,21.9,20.6,00.0,30.7,23.3,02.4,0002.7,0010.84,0006.11,0005.57
2022-12-23 13:28:00,,0831.3,4.95,0.00,21.8,20.3,00.0,30.6,23.2,02.4,0002.5,0010.76,0006.10,0005.57
2022-12-23 13:29:00,,0831.3,5.04,0.00,21.8,21.2,00.0,30.6,23.5,02.4,0002.5,0010.75,0006.10,0005.58
2022-12-23 13:30:00,,0831.4,5.01,0.00,21.9,21.9,00.0,30.6,23.7,02.3,0002.1,0010.67,0006.07,0005.56
2022-12-23 13:31:00,,0831.2,4.98,0.00,22.0,22.4,00.0,30.6,23.9,02.3,0001.7,0010.61,0006.05,0005.54
2022-12-23 13:32:00,,0831.2,5.03,0.00,22.0,21.8,00.0,30.7,23.8,02.3,0001.9,0010.44,0006.02,0005.52
2022-12-23 13:33:00,,0831.3,4.95,0.00,22.0,21.0,00.0,30.7,23.5,02.3,0002.6,0009.89,0005.98,0005.49
2022-12-23 13:34:00,,0831.4,5.03,0.00,21.9,20.2,00.0,30.7,23.3,02.4,0002.5,0009.84,0005.94,0005.48
2022-12-23 13:35:00,,0831.3,5.03,0.00,21.8,19.9,00.0,30.7,23.2,02.4,0002.1,0010.38,0005.89,0005.46
2022-12-23 13:36:00,,0831.4,4.96,0.00,21.8,20.8,00.0,30.6,23.4,02.4,0002.6,0010.51,0005.89,0005.44
2022-12-23 13:37:00,,0831.5,5.03,0.00,21.9,21.7,00.0,30.6,23.6,02.4,0002.4,0010.26,0005.88,0005.43
2022-12-23 13:38:00,,0831.5,4.98,0.00,22.0,22.2,00.0,30.6,23.8,02.4,0002.2,0010.47,0005.92,0005.44
2022-12-23 13:39:00,,0831.5,5.00,0.00,22.0,21.7,00.0,30.6,23.7,02.3,0002.2,0011.46,0005.98,0005.47
2022-12-23 13:40:00,,0831.5,5.03,0.00,21.9,20.9,00.0,30.7,23.4,02.4,0001.9,0011.63,0005.98,0005.46
2022-12-23 13:41:00,,0831.5,4.98,0.00,21.8,20.2,00.0,30.7,23.2,02.4,0001.8,0011.57,0005.95,0005.44
2022-12-23 13:42:00,,0831.4,4.98,0.00,21.7,19.9,00.0,30.6,23.1,02.4,0002.2,0011.52,0005.91,0005.42
2022-12-23 13:43:00,,0831.4,5.02,0.00,21.8,20.8,00.0,30.6,23.3,02.4,0002.2,0011.91,0005.89,0005.40
2022-12-23 13:44:00,,0831.6,5.00,0.00,21.8,21.6,00.0,30.5,23.5,02.4,0002.2,0011.99,0005.87,0005.37
2022-12-23 13:45:00,,0831.6,4.99,0.00,21.9,22.1,00.0,30.6,23.6,02.4,0002.5,0011.96,0005.87,0005.37
2022-12-23 13:46:00,,0831.6,5.01,0.00,21.9,22.0,00.0,30.6,23.7,02.4,0002.7,0011.25,0005.83,0005.35
2022-12-23 13:47:00,,0831.6,4.97,0.00,21.9,21.2,00.0,30.6,23.5,02.4,0002.7,0010.94,0005.77,0005.33
2022-12-23 13:48:00,,0831.7,5.04,0.00,21.8,20.6,00.0,30.6,23.3,02.4,0002.6,0011.04,0005.79,0005.34
2022-12-23 13:49:00,,0831.7,5.01,0.00,21.7,20.1,00.0,30.6,23.1,02.4,0002.7,0010.91,0005.77,0005.33
2022-12-23 13:50:00,,0831.7,4.97,0.00,21.7,20.7,00.0,30.6,23.3,02.4,0002.4,0009.93,0005.75,0005.33
2022-12-23 13:51:00,,0831.6,5.02,0.00,21.8,21.5,00.0,30.5,23.5,02.4,0002.5,0009.79,0005.76,0005.34
2022-12-23 13:52:00,,0831.7,4.97,0.00,21.9,22.3,00.0,30.6,23.7,02.4,0002.5,0009.89,0005.82,0005.38
2022-12-23 13:53:00,,0831.7,5.03,0.00,22.0,22.1,00.0,30.6,23.8,02.4,0002.8,0009.99,0005.87,0005.40
2022-12-23 13:54:00,,0831.7,4.96,0.00,21.9,21.4,00.0,30.6,23.6,02.4,0003.0,0009.70,0005.89,0005.41
2022-12-23 13:55:00,,0831.7,5.02,0.00,21.9,20.7,00.0,30.6,23.3,02.4,0003.2,0009.74,0005.94,0005.43
2022-12-23 13:56:00,,0831.7,5.03,0.00,21.8,20.2,00.0,30.6,23.2,02.4,0003.0,0009.75,0005.90,0005.40
2022-12-23 13:57:00,,0831.6,5.01,0.00,21.8,20.8,00.0,30.6,23.3,02.4,0003.2,0009.73,0005.89,0005.38
2022-12-23 13:58:00,,0831.7,4.97,0.00,21.8,21.6,00.0,30.6,23.6,02.4,0003.1,0009.61,0005.87,0005.36
2022-12-23 13:59:00,,0831.7,5.02,0.00,21.9,22.3,00.0,30.6,23.7,02.4,0003.5,0009.50,0005.84,0005.33
